Regional Weather Roundup
Issued by NWS

Home | Current Version | Previous Version | Text Only | Print | Product List | Glossary On
Versions: 1 2 3 4 5 6 7 8 9 10 11 12 13 14 15 16 17 18 19 20 21 22 23 24 25 26 27 28 29 30 31 32 33 34 35 36 37 38 39 40 41 42 43 44 45 46 47 48 49 50
000
ASUS46 KSEW 240110
RWRWA

WASHINGTON REGIONAL WEATHER ROUNDUP
NATIONAL WEATHER SERVICE SEATTLE WA
600 PM PDT WED JUL 23 2014

NOTE:"FAIR" INDICATES FEW OR NO CLOUDS BELOW 12,000 FEET WITH NO
SIGNIFICANT WEATHER AND/OR OBSTRUCTIONS TO VISIBILITY.

WAZ505-507>509-240200-
SEATTLE, TACOMA, EVERETT, AND VICINITY

CITY           SKY/WX    TMP DP  RH WIND       PRES   REMARKS
EVERETT        CLOUDY    58  55  90 S14       30.03F
BOEING FIELD   PTSUNNY   66  57  72 S10       30.05S
RENTON         PTSUNNY   63  57  81 SE8       30.05S
SEATAC AIRPORT PTSUNNY   61  57  87 S8        30.06S
JBLM-MCCHORD   PTSUNNY   63  58  83 SW10G16   30.06S
PUYALLUP       MOCLDY    63  55  77 SW5       30.07S
JBLM-FT LEWIS  MOSUNNY   63  55  77 S7        30.05S
TACOMA NARROWS PTSUNNY   60  54  80 S12       30.05S
$$

WAZ001-503-506-510-514-515-240200-
NORTH INTERIOR

CITY           SKY/WX    TMP DP  RH WIND       PRES   REMARKS
BELLINGHAM     LGT RAIN  58  56  93 S9G16     30.00R FOG
FRIDAY HARBOR  CLOUDY    54  53  97 SE5       30.01S FOG
EASTSOUND      RAIN      57  55  94 S8        29.97F
PORT ANGELES   CLOUDY    61  50  67 CALM      30.00R
NAS WHIDBEY    CLOUDY    61  56  83 SE12G18   30.03R
BURLINGTON     CLOUDY    57  55  94 S7        30.03S
$$

WAZ020-022-039-040-504-511-512-240200-
SOUTHWEST INTERIOR

CITY           SKY/WX    TMP DP  RH WIND       PRES   REMARKS
SHELTON        PTSUNNY   66  51  58 SW15      30.02F
OLYMPIA        MOSUNNY   65  52  62 SW10G18   30.05F
CHEHALIS       FAIR      68  54  60 SW7G17    30.06S
KELSO          PTSUNNY   66  50  55 W6        30.12S
VANCOUVER      MOSUNNY   65  52  62 VRB6      30.10S
SCAPPOOSE, OR  PTSUNNY   67  51  56 W9        30.09S
PORTLAND, OR   PTSUNNY   65  58  78 S13       30.10F
$$

WAZ021-516-517-240200-
WASHINGTON COAST

CITY           SKY/WX    TMP DP  RH WIND       PRES   REMARKS
FORKS          MOSUNNY   64  53  67 S9G20     30.00F
HOQUIAM        MOSUNNY   64  54  69 S14       30.05S
ASTORIA, OR    PTSUNNY   60  55  83 S8        30.08F
$$

WAZ019-023-024-040-518-519-240200-
CASCADE MOUNTAINS AND COLUMBIA GORGE

CITY           SKY/WX    TMP DP  RH WIND       PRES   REMARKS
STAMPEDE PASS  NOT AVBL
TROUTDALE, OR  CLOUDY    67  54  63 S12       30.10S
THE DALLES, OR PTSUNNY   68  48  48 NW23G35   30.04F
$$

WAZ026-027-041>044-520-521-240200-
EAST SLOPES

CITY           SKY/WX    TMP DP  RH WIND       PRES   REMARKS
OMAK           LGT RAIN  65  60  84 S13G24    29.85R
WENATCHEE      PTSUNNY   69  49  48 W20       29.91R
ELLENSBURG     PTSUNNY   65  48  54 NW22      29.98S
YAKIMA         PTSUNNY   70  45  40 SW12      29.97F
$$

WAZ028-034-035-240200-
COLUMBIA BASIN

CITY           SKY/WX    TMP DP  RH WIND       PRES   REMARKS
EPHRATA        MOSUNNY   72  54  53 SW22      29.90R
MOSES LAKE     MOSUNNY   71  55  56 SW21G28   29.93R
PASCO          MOSUNNY   75  53  46 SW18G32   29.98S
HERMISTON, OR  MOSUNNY   72  50  45 W16G26    30.01S
$$

WAZ036>038-240200-
NORTHEAST WASHINGTON

CITY           SKY/WX    TMP DP  RH WIND       PRES   REMARKS
SPOKANE GEIGER PTSUNNY   63  56  78 SW20G26   29.97R
SPOKANE FELTS  PTSUNNY   67  56  67 SW21G32   29.98R
FAIRCHILD AFB  PTSUNNY   63  57  80 W23       29.97F
COEURDALENE,ID CLOUDY    68  57  68 W13G23    29.96R
DEER PARK      NOT AVBL
$$

WAZ029>033-240200-
SOUTHEAST WASHINGTON

CITY           SKY/WX    TMP DP  RH WIND       PRES   REMARKS
PULLMAN        PTSUNNY   61  51  70 W7        30.03R
LEWISTON, ID   MOSUNNY   68  50  52 NW16G33   29.94R
WALLA WALLA    MOSUNNY   69  55  60 SW20G25   30.04R
PENDLETON, OR  PTSUNNY   68  52  56 W18       30.02F
$$


USA.gov is the U.S. government's official web portal to all federal, state and local government web resources and services.